Regional Weather Roundup
Issued by NWS

Home | Current Version | Previous Version | Graphics & Text | Print | Product List | Glossary On
Versions: 1 2 3 4 5 6 7 8 9 10 11 12 13 14 15 16 17 18 19 20 21 22 23 24 25 26 27 28 29 30 31 32 33 34 35 36 37 38 39 40 41 42 43 44 45 46 47 48 49 50
539
ASUS43 KMKX 240911
RWRWI

WISCONSIN REGIONAL WEATHER ROUNDUP
NATIONAL WEATHER SERVICE MILWAUKEE/SULLIVAN WI
400 AM CDT TUE OCT 24 2017

NOTE: "FAIR" INDICATES FEW OR NO CLOUDS BELOW 12,000 FEET WITH NO
SIGNIFICANT WEATHER AND/OR OBSTRUCTIONS TO VISIBILITY.

WIZ001-002-006>008-014>016-023>028-241000-
NORTHWEST WISCONSIN

CITY           SKY/WX    TMP DP  RH WIND       PRES   REMARKS
SUPERIOR ARPT  CLOUDY    43  34  72 NW25G33   29.76S
ASHLAND        RAIN      42  38  85 NW10      29.69F
HAYWARD        CLOUDY    41  37  86 NW8G17    29.71S
SIREN          CLOUDY    42  32  68 N14G22    29.77F
CUMBERLAND     CLOUDY    37  32  81 NW24      29.72S WCI  26
RICE LAKE      CLOUDY    42  34  74 NW14G20   29.73S
CHETEK         CLOUDY    43  37  78 N10G20    29.71R
LADYSMITH      CLOUDY    43  37  78 NW20G28   29.67F
EAU CLAIRE     CLOUDY    44  34  67 NW16G26   29.69S
MENOMONIE      CLOUDY    45  33  64 NW20G31   29.71F
NEW RICHMOND   CLOUDY    43  32  64 NW20G28   29.77S
OSCEOLA        CLOUDY    43  33  65 NW12G24   29.82S
$$

WIZ003>005-009-010-017-018-241000-
NORTH CENTRAL WISCONSIN

CITY           SKY/WX    TMP DP  RH WIND       PRES   REMARKS
MANITOWISH WTR RAIN      42  42 100 NW14G22   29.56F
ARBOR VITAE    LGT RAIN  43  41  95 NW14G24   29.54F
WOODRUFF       LGT RAIN  43  41  95 NW14G24   29.54F
RHINELANDER    LGT RAIN  42  42 100 NW12G24   29.53F
EAGLE RIVER    LGT RAIN  43  43 100 NW10G18   29.51F
LAND O LAKES   LGT RAIN  45  44  95 N10       29.53F
PHILLIPS       CLOUDY    39  38  99 NW13G20   29.61F WCI  31
TOMAHAWK       DRIZZLE   40  38  94 NW9G20    29.57F WCI  34
MEDFORD        CLOUDY    40  37  89 N20G28    29.59F WCI  31
MERRILL        LGT RAIN  42  41  97 NW12      29.56F
$$

WIZ029-030-035-036-043>047-241000-
CENTRAL WISCONSIN

CITY           SKY/WX    TMP DP  RH WIND       PRES   REMARKS
WAUSAU         LGT RAIN  43  41  93 NW13      29.54S
MOSINEE        DRIZZLE   41  41 100 NW13      29.56F
MARSHFIELD     LGT RAIN  42  39  89 NW16G36   29.58S
STEVENS POINT  RAIN      42  42  99 NW12G23   29.55S
WAUPACA        LGT RAIN  48  46  93 NW13      29.51S
WAUTOMA        LGT RAIN N/A N/A N/A NW15G22   29.54R
WISC RAPIDS    LGT RAIN  44  41  89 N10G24    29.58S
CAMP DOUGLAS   LGT RAIN  43  41  95 NW15G22   29.60S
$$

WIZ011>013-019>022-031-037>040-048>050-241000-
NORTHEAST WISCONSIN

CITY           SKY/WX    TMP DP  RH WIND       PRES   REMARKS
ANTIGO         CLOUDY    42  41  97 NW15G21   29.51F
SHAWANO        DRIZZLE   51  46  82 NW12      29.47S
OCONTO         CLOUDY    49  44  83 NW6       29.43F
STURGEON BAY   LGT RAIN  48  44  86 NW12      29.42F
GREEN BAY      LGT RAIN  50  47  89 NW7       29.46F
MANITOWOC      LGT RAIN  48  45  89 NW6       29.46S
APPLETON       DRIZZLE   46  46 100 NW14      29.47S
CLINTONVILLE   NOT AVBL
OSHKOSH        LGT RAIN  49  47  93 NW14      29.48S
$$

WIZ032>034-041-042-053>061-241000-
SOUTHWEST WISCONSIN

CITY           SKY/WX    TMP DP  RH WIND       PRES   REMARKS
LA CROSSE      CLOUDY    47  36  65 NW21G28   29.66F
SPARTA         CLOUDY    44  38  80 NW10      29.65S
VIROQUA        CLOUDY    43  38  83 NW15G26   29.63S
BOSCOBEL       CLOUDY    47  40  76 NW9       29.64F
PRAIRIE DU CHI CLOUDY    47  34  61 NW18G26   29.65F
PLATTEVILLE    CLOUDY    44  44  99 W12       29.62F
$$

WIZ056-057-062-063-064-067-068-241000-
SOUTH CENTRAL WISCONSIN

CITY           SKY/WX    TMP DP  RH WIND       PRES   REMARKS
REEDSBURG      LGT RAIN  43  43 100 NW16      29.58S
BARABOO/DELLS  LGT RAIN  43  42  93 NW14G22   29.56S
LONE ROCK      LGT RAIN  46  43  89 NW13G21   29.60F
MINERAL POINT  LGT RAIN  45  45 100 NW10G18   29.59F
MADISON        LGT RAIN  46  43  89 NW12G23   29.53F
MIDDLETON      CLOUDY    46  45  95 NW15G22   29.55S
WATERTOWN      RAIN      47  47 100 NW8       29.49F
MONROE         LGT RAIN  43  41  93 NW18G24   29.56F
JANESVILLE     RAIN      45  45 100 W14G20    29.52F
$$

WIZ051-052-058>065-066-070>072-241000-
SOUTHEAST WISCONSIN

CITY           SKY/WX    TMP DP  RH WIND       PRES   REMARKS
MILWAUKEE      LGT RAIN  50  49  96 W6        29.47F
WAUKESHA       LGT RAIN  46  45  93 W6        29.48F
MILWAUKEE/TIMM DRIZZLE   48  45  87 W3        29.48F
RACINE         LGT RAIN  49  48  97 W6        29.48F
BURLINGTON     RAIN      47  47 100 W9        29.49S
KENOSHA        LGT RAIN  48  46  93 W10       29.48F
FOND DU LAC    LGT RAIN  49  46  90 NW13      29.48F
SHEBOYGAN      LGT RAIN  50  47  89 NW9       29.46S
WEST BEND      DRIZZLE   46  46 100 NW7       29.47S
JUNEAU         RAIN      47  46  96 NW3       29.50S
$$

LSZ147-162-241000-
LAKE SUPERIOR

STATION/POSITION TIME  TEMP    WIND        PRES    WAVE
                       AIR SEA DIR/SP/G            HT/PER
                 (UTC) (F)     (DEG/KT/KT) (MB)    (FT/S)
W MID LAKE BUOY  0750   51 51              1002.1F   5/ 5
DEVILS ISLAND    0900   44     340/ 37/ 44 1005.2S
PORT WING        0835          340/ 23/ 25 1007.1S
SAXON HARBOR     0903   47     340/ 29     1003.4F
$$

LMZ867-665-643>646-241000-
LAKE MICHIGAN

STATION/POSITION TIME  TEMP    WIND        PRES    WAVE
                       AIR SEA DIR/SP/G            HT/PER
                 (UTC) (F)     (DEG/KT/KT) (MB)    (FT/S)
S GREEN BAY BUOY 0900   52 58  310/ 14/ 16  996.9
N MID LAKE BUOY  0850   48 55  310/ 27/ 35  992.2F   7/ 6
NORTHPORT PIER   0850   49     310/ 18/ 27  993.9F
KEWAUNEE LAKESHO 0842   48     320/  4/  6  996.5F
SHEBOYGAN LAKESH 0900   50     310/ 12/ 15  997.4F
PORT WASHINGTON  0840   51     300/  5/  7  998.6F
MILWAUKEE LAKESH 0850   50     290/  7/  8   N/A
S MID LAKE BUOY  0750   53 60  320/ 16/ 17  998.2F   3/ 4
KENOSHA   LAKESH 0900   49     260/ 11/ 15  998.6
$$

TC  - TEMPERATURE IN CELSIUS
VSB - VISIBILITY IN STATUTE MILES
WCI - WIND CHILL INDEX
HX  - HEAT INDEX





USA.gov is the U.S. government's official web portal to all federal, state and local government web resources and services.